STARLINK-32123, 60284

Orbit data source: Space-Track

STARLINK-32123, 60284 is a payload satellite owned by SpaceX/Seattle (US) in LEO that was launched on Sun, 28 Jul 2024 UTC via an FALCON 9 launch vehicle from the Air Force Eastern Test Range (AFETR). Payload-class satellites include a variety of spacecraft equipped with specific instruments for various scientific and technological missions. These include communications satellites like Starlink; space stations such as the ISS; scientific satellites like the Hubble; Earth observation satellites from companies like Planet Labs, Umbra, and HawkEye 360; GPS; miniature CubeSats for education and research; and military/defense satellites.

Loading next visibility...
Identifier
60284, 2024-132G
Orbit
LEO
Country
Flag of USUS
Related business
Manufacturer
SpaceX/Seattle
Mission
Operational Commercial Communications
Bus & Motor
STARLINK V2M, Unknown motor
Mass
730 kg wet, ~700 kg dry
Launch date (UTC)
2024-07-28 (2 years ago)
Launch vehicle
FALCON 9
Launch site
Air Force Eastern Test Range (AFETR)
Object type
Payload
Rocket body
Debris
Shape & HBR
Box + 2 Pan, 17.7 m
Radar Cross Section
33.884 m², Large (>1 m²)

Expand to show TLE details & history
Last TLE update: 17 hours ago

TLE from 17 hours ago
0 STARLINK-32123
1 60284U 24132G   26263.47825589  .00000447  00000-0  24377-4 0  9991
2 60284  53.1596 213.4542 0001355  84.6834 275.4323 15.34389281121586
Epoch: 2026-09-20T11:28Z
TLE epoch observation values (Epoch: 2026-09-20T11:28:41.308Z)
Latitude
-0.00006°
Longitude
41.91018°
Altitude
463.549 km
Speed
7.636 km/s
True Right ascension
14h 13m 48s
True Declination
0° 00' 00"
Sunlit
Object was in daylight at epoch
Visualization orbit readout
Latitude
Unknown
Longitude
Unknown
Altitude
Unknown
Speed
Unknown
Apparent Right ascension
Unknown
Apparent Declination
Unknown
Sunlit
N/A
Visualization observer readout
Local Sidereal Time
21:45:44
Azimuth
Unknown
Elevation
Unknown
Doppler factor
Unknown
Orbital elements
Apogee altitude
463.919 km
Perigee altitude
462.065 km
Semi-major axis
6,841.129 km
Eccentricity
0.00014
Inclination
53.1596°
RAAN
213.4542°
Arg. of periapsis
84.6834°
True anomaly
275.41684°
Mean anomaly
275.4323°
Eccentric anomaly
275.42457°
Mean motion
3.83576 °/min
Orbital period
93.85 mins
BSTAR
0.000024377
Loading maneuver chart data...
Computing Atmospheric mass density...
Loading historical data...
Loading historical data...
Loading historical data...
Loading historical data...
Loading historical data...
Loading historical data...
Loading historical data...

Documentation

Showing up to 5 results
|